Theta_e
336 343 345 346 348 350 350 351 352 351 354 353 352 353 352 351 351 350 347 347 347 348 344 347 344 349 340 343 339 335 329 326
310 332 343 344 346 349 351 352 352 351 353 352 352 352 352 351 352 352 345 343 343 344 343 343 342 340 337 334 332 329 327 325
307 319 339 343 343 345 348 350 350 351 352 352 350 350 350 351 351 351 349 345 344 344 343 340 341 337 336 332 331 328 325 324
313 308 325 340 343 344 345 347 341 349 350 350 350 350 351 351 350 351 350 346 344 344 342 340 339 337 335 331 328 326 324 322
307 307 315 338 340 343 341 338 338 347 346 346 346 348 350 350 350 350 350 348 344 344 342 340 339 336 332 329 325 324 322 322
307 308 311 313 331 337 338 339 340 344 343 342 339 331 337 346 349 350 350 348 346 343 343 341 340 335 332 329 326 324 323 321
307 310 310 320 320 331 329 332 339 343 344 337 335 329 334 340 345 347 349 349 348 344 343 343 339 336 333 331 329 323 320 321
307 309 309 314 328 332 328 333 339 338 333 331 333 341 341 342 343 344 348 350 350 347 345 344 341 338 335 333 330 325 322 325
305 308 310 313 318 328 332 331 330 329 327 328 330 334 342 341 343 345 343 345 350 348 346 344 340 337 336 333 330 329 327 327
309 310 312 313 312 316 320 322 332 330 329 328 332 336 342 344 341 342 343 342 344 345 345 344 341 338 336 335 331 330 330 329
307 310 311 313 315 318 319 318 322 327 338 339 340 339 338 337 338 341 343 342 343 344 344 342 341 338 338 336 335 332 330 330
306 306 306 310 313 314 315 317 317 319 320 321 324 328 328 333 333 337 337 342 343 343 342 341 342 342 339 339 338 335 335 331
304 305 307 307 310 310 310 311 312 314 316 318 319 317 321 324 325 325 327 331 337 342 342 341 341 341 342 340 339 337 336 334
304 304 305 305 305 308 307 307 309 311 312 314 313 312 313 314 316 320 322 325 329 334 337 338 340 340 339 340 339 339 336 335
301 300 301 301 301 303 307 305 305 307 308 310 311 312 310 311 312 313 317 320 324 326 329 332 335 339 339 339 338 337 337 334
298 299 299 300 301 301 301 302 302 303 305 307 307 307 308 309 311 313 315 316 319 323 325 328 331 334 336 338 339 337 337 332
297 298 299 299 299 299 299 300 300 301 302 303 304 305 305 307 309 312 315 316 319 319 322 323 325 330 333 335 335 336 335 334
296 297 297 298 297 298 299 299 299 300 301 301 303 303 304 305 306 308 311 315 316 319 321 320 319 321 325 330 333 334 331 331
295 296 297 297 297 298 299 299 299 300 300 301 301 302 302 303 305 308 309 311 316 319 318 318 318 320 322 325 328 331 331 330
295 295 296 297 298 298 299 299 299 300 300 300 300 301 301 302 303 305 307 309 311 314 317 318 320 320 321 323 324 328 328 327
Wind_Speed
6 10 14 16 13 9 12 13 12 8 8 6 5 3 5 4 5 5 5 4 3 4 3 3 4 9 4 6 5 4 6 4
5 6 10 9 9 10 14 17 16 12 8 8 8 6 6 6 7 7 4 3 5 5 4 5 5 5 6 5 4 5 6 7
7 7 7 11 12 11 13 13 14 15 13 10 11 10 7 8 8 9 8 8 7 6 6 5 5 4 6 6 6 6 6 6
6 8 9 12 13 15 14 15 7 9 14 14 11 11 13 10 12 14 15 9 9 9 7 7 7 6 6 5 6 6 6 4
10 11 12 16 12 15 16 14 9 11 10 10 9 10 11 14 13 13 15 15 12 12 9 8 7 4 5 4 5 4 5 6
6 4 10 13 10 12 16 12 12 12 12 12 10 4 1 4 7 11 16 15 15 10 8 9 6 4 4 3 4 5 6 5
7 10 9 9 14 11 7 10 13 15 11 5 3 2 2 4 4 5 8 9 13 11 9 8 8 7 7 6 6 4 3 4
10 2 6 3 4 4 9 7 6 5 3 2 1 3 3 4 4 2 3 7 11 10 9 10 8 8 7 6 8 4 5 4
6 5 4 7 7 6 4 4 4 5 3 4 4 7 4 3 4 4 4 4 7 8 8 8 6 9 10 10 8 10 7 4
6 6 6 6 5 8 7 6 5 5 2 2 2 3 4 3 3 5 5 8 6 6 9 9 7 7 9 10 11 8 8 7
7 7 4 6 8 7 5 6 4 3 5 3 2 1 2 3 1 3 9 10 12 15 9 10 5 6 9 8 11 15 12 7
9 8 6 7 7 7 8 6 7 6 6 4 5 3 2 2 2 2 3 8 11 11 13 12 9 7 7 10 8 11 12 12
7 7 7 5 6 6 6 6 5 3 4 5 4 3 1 1 1 3 4 4 5 6 8 8 9 7 14 13 12 11 9 10
5 5 3 3 2 2 3 5 4 4 4 3 2 2 3 3 4 4 5 4 4 6 6 6 8 10 12 12 15 16 10 10
8 9 9 9 9 9 8 9 8 9 8 5 3 6 5 6 7 4 5 4 4 6 6 6 5 8 11 12 12 12 13 12
10 9 8 10 9 9 9 9 9 9 10 10 8 7 5 5 6 6 5 5 6 6 7 6 7 7 8 10 11 11 13 10
8 7 7 7 8 7 6 7 7 7 5 5 7 7 8 7 9 7 7 7 6 8 7 7 6 6 7 9 9 12 12 14
7 6 7 5 3 3 2 1 4 6 8 6 7 7 7 7 7 8 8 9 7 7 8 7 7 7 7 8 9 11 13 11
7 7 7 6 6 7 9 10 11 11 9 9 8 7 7 7 7 7 7 6 8 9 7 8 7 7 8 9 10 13 15 15
7 7 7 9 10 10 11 10 11 11 12 14 14 14 14 13 9 8 7 8 8 8 10 10 9 10 10 11 11 12 15 17
Wind_Direction
189 173 177 179 170 164 168 159 163 163 144 151 166 153 163 158 169 181 184 180 193 205 200 206 208 221 217 232 239 231 228 224
236 196 185 165 175 178 175 166 162 171 154 171 164 171 173 178 188 194 181 190 192 197 204 224 213 204 207 217 223 228 231 232
159 225 217 169 177 179 179 181 190 178 169 176 172 174 175 182 184 204 204 193 203 205 212 205 212 208 218 221 221 227 232 232
230 192 205 196 191 191 185 188 192 199 168 188 193 175 178 184 199 191 192 216 201 202 211 218 221 212 217 219 214 220 232 223
231 167 202 199 205 198 193 191 180 191 186 189 203 196 196 190 191 203 201 186 212 202 199 213 221 222 249 257 247 225 232 222
301 218 185 201 197 202 193 191 190 191 196 201 197 183 121 246 191 198 207 197 200 212 219 212 196 188 195 229 257 273 277 264
194 211 212 191 195 188 201 189 199 198 201 206 271 316 208 255 247 215 221 221 195 207 214 214 188 194 191 215 226 218 245 282
214 146 248 63 353 247 161 187 177 167 125 68 332 328 267 233 234 218 167 217 213 215 222 223 217 207 211 206 231 201 206 215
65 116 150 117 95 71 14 169 166 172 170 180 203 224 235 233 217 192 182 229 222 218 231 243 222 220 215 202 198 216 240 191
69 82 81 85 111 144 156 150 157 178 172 209 224 199 231 228 181 196 205 217 220 233 223 215 211 238 229 220 207 222 237 181
138 108 84 97 100 117 128 102 107 114 162 171 163 65 341 7 297 247 222 216 218 228 254 275 221 219 237 224 229 225 232 201
102 91 63 61 75 67 80 87 86 90 109 105 122 135 189 213 273 283 272 209 225 217 214 229 239 226 247 245 237 239 240 234
77 96 105 100 102 111 119 110 89 74 68 99 103 112 179 250 279 294 285 288 255 223 218 219 231 238 239 241 242 233 233 242
130 114 95 95 77 109 112 124 141 153 140 143 140 228 225 224 243 255 265 245 242 240 240 231 225 224 229 228 230 227 227 227
35 25 11 10 21 14 9 12 1 354 351 329 246 228 246 269 285 267 267 262 259 251 231 223 217 227 233 232 230 229 219 224
45 41 39 42 39 30 21 13 4 360 351 336 331 325 313 285 255 243 247 240 239 233 243 244 238 227 234 233 233 228 217 201
31 27 31 25 19 9 3 355 339 332 315 300 306 309 310 297 285 269 274 261 243 244 238 239 244 242 243 241 232 230 217 216
11 9 6 7 7 333 327 274 286 301 310 302 297 283 275 273 276 280 270 267 271 263 244 241 250 254 253 251 237 227 221 219
355 352 347 339 334 341 335 335 331 324 313 306 299 284 286 291 286 285 283 287 279 265 253 255 242 239 247 251 248 229 229 227
338 328 323 325 323 322 318 310 306 309 313 312 310 314 312 303 285 267 265 271 278 273 266 249 236 242 238 243 249 227 227 230